Regional Weather Roundup
Issued by NWS

Home | Current Version | Previous Version | Graphics & Text | Print | Product List | Glossary On
Versions: 1 2 3 4 5 6 7 8 9 10 11 12 13 14 15 16 17 18 19 20 21 22 23 24 25 26 27 28 29 30 31 32 33 34 35 36 37 38 39 40 41 42 43 44 45 46 47 48 49 50
646
ASUS43 KOAX 161210
RWRNE

WEATHER ROUNDUP FOR NEBRASKA
NATIONAL WEATHER SERVICE OMAHA NE
600 AM CST MON JAN 16 2017

NOTES: SATELLITE DATA IS BEING USED TO AUGMENT CLOUD COVER ABOVE
       12000 FEET.
       "FAIR" INDICATES FEW OR NO CLOUDS BELOW 12,000 FEET WITH NO
       SIGNIFICANT WEATHER AND/OR OBSTRUCTIONS TO VISIBILITY.

  * THESE STATIONS DO NOT REPORT WEATHER SUCH AS RAIN...SNOW OR FOG.

NEZ001>004-019>022-054>056-161300-
NEBRASKA PANHANDLE

CITY           SKY/WX    TMP DP  RH WIND       PRES   REMARKS
SCOTTSBLUFF    CLOUDY    35  25  66 NW9       30.01R WCI  28
6HR MIN TEMP:  31; 6HR MAX TEMP:  35;

ALLIANCE       CLOUDY    30  24  78 N8        29.99R WCI  22
6HR MIN TEMP:  30; 6HR MAX TEMP:  31; 6HR PCP: TRACE;

CHADRON        CLOUDY    28  21  75 NW5       30.06S WCI  23
6HR MIN TEMP:  23; 6HR MAX TEMP:  28;

KIMBALL        LGT SNOW  31  30  94 N12G21    29.97S WCI  22
SIDNEY         LGT SNOW  29  27  92 N17G24    29.96R FOG     WCI  17
6HR MIN TEMP:  29; 6HR MAX TEMP:  31; 6HR PCP:  0.01;

$$

NEZ057>060-069>072-079>082-161300-
SOUTHWEST NEBRASKA

CITY           SKY/WX    TMP DP  RH WIND       PRES   REMARKS
NORTH PLATTE   CLOUDY    32  30  92 N7        29.95F FOG     WCI  26
6HR MIN TEMP:  31; 6HR MAX TEMP:  32;

IMPERIAL       MIX PCPN  32  30  92 N13       29.93F FOG     WCI  22
6HR MIN TEMP:  30; 6HR MAX TEMP:  32; 6HR PCP:  0.11;

LEXINGTON      CLOUDY    31  30  95 N10       29.94F FOG     WCI  23
MCCOOK         FRZ RAIN  32  31  96 N12       29.91F FOG     WCI  23
6HR MIN TEMP:  30; 6HR MAX TEMP:  32; 6HR PCP:  0.06;

OGALLALA       LGT SNOW  34  33  96 NE5       29.95F WCI  30
$$

NEZ005>010-023>029-035>040-094-161300-
NORTH CENTRAL NEBRASKA

CITY           SKY/WX    TMP DP  RH WIND       PRES   REMARKS
VALENTINE      CLOUDY    28  22  78 NW3       30.02S
6HR MIN TEMP:  26; 6HR MAX TEMP:  29;

AINSWORTH      MIX PCPN  31  30  94 N3        30.01S
BROKEN BOW     CLOUDY    32  31  96 N9        29.95F FOG     WCI  24
6HR MIN TEMP:  31; 6HR MAX TEMP:  32; 6HR PCP:  0.01;

O`NEILL        MIX PCPN  32  32 100 CALM      30.03F
ORD            CLOUDY    32  29  88 N7        29.98F FOG     WCI  26
6HR MIN TEMP:  31; 6HR MAX TEMP:  32; 6HR PCP:  0.01;

THEDFORD       DRIZZLE   32  32  99 N3        29.99S
$$

NEZ041-046>049-061>064-073>077-083>087-161300-
SOUTH CENTRAL NEBRASKA

CITY           SKY/WX    TMP DP  RH WIND       PRES   REMARKS
GRAND ISLAND   MIX PCPN  31  31 100 NE14      29.96F FOG     WCI  21
6HR MIN TEMP:  30; 6HR MAX TEMP:  31; 6HR PCP:  0.07;

AURORA         MIX PCPN  31  31  99 NE9       29.96F WCI  23
HASTINGS       MIX PCPN  31  30  96 NE14      29.94F WCI  21
6HR MIN TEMP:  31; 6HR MAX TEMP:  31; 6HR PCP:  0.03;

HEBRON         MIX PCPN  32  31  97 NE7       29.92F WCI  26
HOLDREGE       MIX PCPN  31  30  95 N12       29.91F WCI  22
KEARNEY *      CLOUDY    30  28  93 N15       29.94F WCI  19
YORK           LGT RAIN  32  32 100 CALM      29.96F
$$

NEZ011>018-030>034-042>045-161300-
NORTHEAST NEBRASKA

CITY           SKY/WX    TMP DP  RH WIND       PRES   REMARKS
NORFOLK        MIX PCPN  31  29  92 NE7       30.02F FOG     WCI  24
6HR MIN TEMP:  29; 6HR MAX TEMP:  31; 6HR PCP:  0.07;

ALBION         MIX PCPN  32  30  93 NE8       30.00F WCI  24
BLAIR          MIX PCPN  32  32  99 NE9       30.01F WCI  24
FREMONT        CLOUDY    32  32 100 NE7       30.03F FOG     WCI  26
TEKAMAH        CLOUDY    32  31  96 NE8       30.05F WCI  25
6HR MIN TEMP:  32; 6HR MAX TEMP:  32; 6HR PCP:  0.01;

WAYNE          MIX PCPN  32  31  98 NE7       30.05F WCI  25
$$

NEZ050>053-065>068-078-088>093-161300-
SOUTHEAST NEBRASKA

CITY           SKY/WX    TMP DP  RH WIND       PRES   REMARKS
LINCOLN        FRZ RAIN  32  31  96 NE13      29.99F FOG     WCI  22
6HR MIN TEMP:  32; 6HR MAX TEMP:  32; 6HR PCP:  0.05;

OMAHA EPPLEY   CLOUDY    33  29  85 NE7       30.04F FOG     WCI  27
6HR MIN TEMP:  32; 6HR MAX TEMP:  33; 6HR PCP:  0.02;

BEATRICE       DRIZZLE   32  32  99 NE9       29.93F WCI  25
FALLS CITY     RAIN      33  32  96 NE8       29.96F FOG     WCI  26
6HR MIN TEMP:  32; 6HR MAX TEMP:  33; 6HR PCP:  0.12;

NEBRASKA CITY  MIX PCPN  32  32 100 NE10      29.98F WCI  24
PLATTSMOUTH    CLOUDY    32  30  94 NE9       30.00F FOG     WCI  24
$$

NEZ044-045-051>053-067-161300-
OMAHA AREA

CITY           SKY/WX    TMP DP  RH WIND       PRES   REMARKS
OMAHA EPPLEY   CLOUDY    33  29  85 NE7       30.04F FOG     WCI  27
6HR MIN TEMP:  32; 6HR MAX TEMP:  33; 6HR PCP:  0.02;

BLAIR          MIX PCPN  32  32  99 NE9       30.01F WCI  24
FREMONT        CLOUDY    32  32 100 NE7       30.03F FOG     WCI  26
MILLARD        CLOUDY    34  33  94 NE3       30.02F FOG
OFFUTT AFB     DRIZZLE   32  32 100 NE8       30.01F FOG     WCI  25
PLATTSMOUTH    CLOUDY    32  30  94 NE9       30.00F FOG     WCI  24
WAHOO          CLOUDY    32  31  97 NE10      30.02F FOG     WCI  24
$$




USA.gov is the U.S. government's official web portal to all federal, state and local government web resources and services.